Location: Shades State Park
(39.9310°N, 87.0690°W)
Time: 03:24:42
(UTC-05:00)

ISS - Visible Passes

Search period start: 05 December 2016 00:00
Search period end: 15 December 2016 00:00
Orbit: 401 x 410 km, 51.6° (Epoch: 05 December)

Date Brightness Start Highest point End Pass type
(mag) Time Alt. Az. Time Alt. Az. Time Alt. Az.
05 Dec -0.9 19:12:51 10° NW 19:14:52 15° NNW 19:14:52 15° NNW visible
06 Dec -1.3 18:20:09 10° WNW 18:22:39 20° NNW 18:24:59 11° NNE visible
07 Dec -0.7 19:06:32 10° NNW 19:07:44 12° N 19:07:44 12° N visible
08 Dec -0.9 18:13:43 10° NW 18:15:31 14° NNW 18:17:21 10° NNE visible
09 Dec -0.7 18:59:49 10° NNW 19:00:30 11° N 19:00:30 11° N visible
10 Dec -0.8 18:07:17 10° NNW 18:08:26 11° N 18:09:34 10° NNE visible
11 Dec -0.9 18:52:17 10° NNW 18:53:18 12° N 18:53:18 12° N visible
12 Dec -0.9 18:00:18 10° NNW 18:01:19 11° N 18:02:21 10° NNE visible
13 Dec -1.3 18:44:20 10° NNW 18:46:16 16° NNE 18:46:16 16° NNE visible
14 Dec -1.1 17:52:30 10° NNW 17:54:08 13° NNE 17:55:45 10° NE visible
14 Dec -0.9 19:28:13 10° NW 19:29:12 17° NNW 19:29:12 17° NNW visible
